Location: *
(53.1472°N, 16.0764°E)
Time: 10:13:01
(UTC+00:00)

Daily predictions for brighter satellites

Satellite Brightness Start Highest point End
(mag) Time Altitude Azimuth Time Altitude Azimuth Time Altitude Azimuth
MOS 1 4.4 17:52:51 10° SSE 17:58:24 63° ENE 18:04:00 10° NNW
STARLINK-1093 4.5 17:57:15 10° W 18:00:03 29° SSW 18:02:50 10° SSE
CZ-4 R/B 3.6 17:56:49 10° SSW 18:00:13 29° W 18:03:38 10° NW
STARLINK-1074 4.5 17:57:42 10° W 18:00:29 29° SSW 18:03:16 10° SSE
STARLINK-1113 3.7 17:56:45 10° W 18:00:55 83° S 18:05:04 10° ESE
STARLINK-1087 4.5 17:58:12 10° W 18:00:57 28° SSW 18:03:41 10° SSE
PKM 4.3 18:00:33 10° SW 18:03:59 66° SSE 18:10:00 10° ENE
STARLINK-1119 3.7 18:01:44 10° W 18:05:52 82° SSW 18:10:01 10° ESE
STARLINK-1122 4.4 18:02:40 10° W 18:06:31 44° SSW 18:10:22 10° SE
Cosmos 1470 3.9 18:04:22 10° SE 18:07:28 23° E 18:10:36 10° NE
NOSS 2-1 (C) 3.0 18:04:18 10° SW 18:07:42 79° SE 18:11:35 10° NE
ATLAS CENTAUR R/B 3.4 18:05:36 10° W 18:09:25 27° NNW 18:13:01 10° NNE
SL-08 RB Rocket 4.0 18:05:20 10° SE 18:09:41 49° ENE 18:14:06 10° N
Cosmos 2369 Rocket 2.9 18:05:20 10° NNW 18:10:41 38° NE 18:15:59 10° ESE
STARLINK-1114 3.7 18:06:43 10° W 18:10:52 80° SSW 18:14:57 10° ESE
STARLINK-1126 4.5 18:07:18 10° W 18:11:07 42° SSW 18:14:57 10° SE
Cosmos 304 Rocket 4.1 18:06:36 10° NNW 18:11:24 73° WSW 18:16:10 10° SSE
STARLINK-1233 4.0 18:08:44 10° SSW 18:11:27 27° SSE 18:14:10 10° E
NOSS 2-1 (D) 3.0 18:08:29 10° SW 18:11:53 85° SE 18:15:48 10° NE
STARLINK-1212 4.0 18:09:11 10° SSW 18:11:54 27° SSE 18:14:35 10° E
ISS -3.6 18:08:41 10° W 18:12:01 68° S 18:15:13 11° ESE
IRS-1A Rocket 4.4 18:06:34 10° SSE 18:12:15 90° WSW 18:18:05 10° NNW
STARLINK-1105 4.0 18:09:37 10° SSW 18:12:20 27° SSE 18:15:03 10° E
Resurs 1-3 4.4 18:08:24 10° SE 18:12:22 35° ENE 18:16:22 10° N
COSMOS 2428 3.6 18:06:52 10° SW 18:12:31 56° NW 18:18:10 10° NNE
STARLINK-1206 4.0 18:10:06 10° SSW 18:12:49 27° SSE 18:15:27 10° E
SJ-6B 3.0 18:09:11 10° SSE 18:13:11 59° ENE 18:17:17 10° N
STARLINK-1247 4.0 18:10:33 10° SSW 18:13:16 27° SSE 18:15:53 11° E
STARLINK-1227 4.0 18:10:56 10° SSW 18:13:41 28° SSE 18:16:20 11° E
STARLINK-1218 4.0 18:11:25 10° SSW 18:14:09 27° SSE 18:16:45 11° E
CZ-2C R/B 2.9 18:09:18 10° SSE 18:14:18 75° ENE 18:19:09 10° NNW
STARLINK-1226 3.9 18:11:53 10° SSW 18:14:37 28° SSE 18:17:12 11° E
Cosmos 1758 4.3 18:11:31 10° SSE 18:14:58 27° E 18:18:26 10° NNE
STARLINK-1254 3.9 18:12:16 10° SSW 18:15:01 28° SSE 18:17:38 11° E
STARLINK-1215 3.9 18:12:46 10° SSW 18:15:30 28° SSE 18:18:03 11° E
STARLINK-1130 (DARKSAT) 3.7 18:11:41 10° W 18:15:50 78° SSW 18:19:43 12° ESE
STARLINK-1231 3.9 18:13:12 10° SSW 18:15:56 28° SSE 18:18:29 11° E
STARLINK-1232 3.9 18:14:06 10° SSW 18:16:51 28° SSE 18:19:21 12° E
Cosmos 1048 Rocket 4.0 18:11:59 10° SSW 18:17:08 89° ESE 18:22:23 10° NNE
STARLINK-1217 3.9 18:14:32 10° SSW 18:17:17 29° SSE 18:19:47 12° E
STARLINK-1208 3.9 18:14:57 10° SSW 18:17:43 29° SSE 18:20:15 12° E
STARLINK-1229 3.9 18:15:25 10° SSW 18:18:11 29° SSE 18:20:39 12° E
Meteor 2-8 Rocket 4.5 18:12:17 10° S 18:18:22 66° E 18:24:26 10° NNE
STARLINK-1271 3.9 18:15:52 10° SSW 18:18:39 29° SSE 18:21:06 12° E
STARLINK-1270 3.9 18:16:19 10° SSW 18:19:05 29° SSE 18:21:32 12° E
Meteor 1-22 Rocket 4.1 18:13:53 10° S 18:19:06 64° E 18:24:22 10° NNE
STARLINK-1154 3.8 18:16:45 10° SSW 18:19:31 29° SSE 18:21:57 12° E
Resurs 01 Rocket 2.6 18:15:45 10° SE 18:19:36 31° ENE 18:23:29 10° N
STARLINK-1197 3.8 18:17:39 10° SW 18:20:26 30° SSE 18:22:49 13° E
STARLINK-1084 3.7 18:16:39 10° W 18:20:48 76° SSW 18:24:30 13° ESE
STARLINK-1189 3.8 18:18:06 10° SW 18:20:53 30° SSE 18:23:15 13° E
USA 81 4.3 18:15:48 10° N 18:21:05 75° W 18:26:21 10° S
STARLINK-1187 3.7 18:18:50 10° SW 18:21:42 33° SSE 18:24:10 13° E
STARLINK-1188 3.8 18:18:59 10° SW 18:21:46 30° SSE 18:24:07 13° E
STARLINK-1198 3.8 18:19:14 10° SW 18:22:01 30° SSE 18:24:21 13° E
STARLINK-1235 3.6 18:19:27 10° SW 18:22:23 36° SSE 18:24:55 13° E
Cosmos 494 Rocket 4.0 18:18:22 10° S 18:23:28 65° ESE 18:28:38 10° NNE
STARLINK-1199 3.8 18:20:53 10° SW 18:23:43 31° SSE 18:26:02 13° E
Cosmos 1709 Rocket 4.0 18:17:44 10° N 18:24:02 77° ENE 18:30:11 10° SSE
STARLINK-1191 3.8 18:21:20 10° SW 18:24:10 32° SSE 18:26:29 14° E
Cosmos 1733 3.1 18:20:29 10° S 18:24:14 74° E 18:28:02 10° NNE
CZ-4C R/B 3.5 18:19:03 10° W 18:24:22 43° NNW 18:30:45 10° NE
STARLINK-1210 3.8 18:21:47 10° SW 18:24:37 32° SSE 18:26:54 14° E
STARLINK-1221 3.7 18:22:14 10° SW 18:25:05 32° SSE 18:27:22 14° E
STARLINK-1219 3.7 18:22:40 10° SW 18:25:31 32° SSE 18:27:47 14° E
STARLINK-1098 3.7 18:21:38 10° W 18:25:46 74° SSW 18:29:16 14° ESE
STARLINK-67 2.9 18:23:20 10° SW 18:25:47 41° SSE 18:27:36 16° E
STARLINK-1222 3.7 18:23:06 10° SW 18:25:58 32° SSE 18:28:12 14° E
FREGAT/IRIS 2.6 18:23:31 10° S 18:26:13 71° WSW 18:28:58 10° NNW
STARLINK-1211 3.7 18:23:34 10° SW 18:26:25 32° SSE 18:28:39 14° E
STARLINK-1237 4.5 18:22:57 10° SSW 18:26:28 29° SE 18:29:33 12° E
Cosmos 1674 4.4 18:23:10 10° NNW 18:26:40 36° W 18:30:07 10° SSW
STARLINK-1214 3.7 18:24:01 10° SW 18:26:52 33° SSE 18:29:05 15° E
SPOT 3 Rocket 3.6 18:21:55 10° SSE 18:27:04 62° ENE 18:32:13 10° N
STARLINK-1245 3.7 18:24:30 10° SW 18:27:20 33° SSE 18:29:30 15° E
STARLINK-1238 3.7 18:24:55 10° SW 18:27:46 33° SSE 18:29:57 15° E
SL-14 R/B 3.3 18:24:31 10° NNW 18:28:36 89° WSW 18:32:38 10° S
STARLINK-1205 3.7 18:25:51 10° SW 18:28:42 33° SSE 18:30:48 15° E
STARLINK-1204 3.7 18:26:16 10° SW 18:29:07 33° SSE 18:31:13 15° E
STARLINK-1123 3.7 18:26:38 10° W 18:30:46 72° SSW 18:34:05 15° ESE
Cosmos 2219 Rocket 3.6 18:25:25 10° WSW 18:30:47 42° NW 18:36:10 10° NNE
STARLINK-1202 4.4 18:27:28 10° SSW 18:31:02 31° SSE 18:33:59 14° E
NOSS 3-4 (A) 4.5 18:25:46 10° NW 18:32:02 43° NNE 18:38:31 12° E
NOSS 3-4 (C) 4.5 18:25:52 10° NW 18:32:07 43° NNE 18:38:36 12° E
MOS 1 Rocket 4.4 18:27:48 10° NNE 18:32:19 30° E 18:36:58 10° SSE
Cosmos 1726 3.8 18:32:03 15° E 18:32:54 16° E 18:35:13 10° NE
STARLINK-1097 3.7 18:31:35 10° W 18:35:43 69° SSW 18:38:50 17° ESE
STARLINK-1246 4.3 18:32:20 10° SSW 18:36:01 33° SSE 18:38:50 15° E
Cosmos 2074 Rocket 4.4 18:30:18 10° N 18:36:17 44° ENE 18:42:01 11° SE
Cosmos 1943 Rocket 2.3 18:30:59 10° NNW 18:36:29 63° NE 18:41:18 14° SE
Cosmos 292 Rocket 4.1 18:32:08 10° NNW 18:36:48 49° ENE 18:40:35 15° SE
Cosmos 1766 4.1 18:36:06 10° SSW 18:40:01 56° WNW 18:43:58 10° N
Cosmos 1980 4.0 18:34:27 10° SW 18:40:09 72° NW 18:45:52 10° NNE
STARLINK-1099 3.7 18:36:35 10° W 18:40:42 67° SSW 18:43:38 18° ESE
S3M 4.4 18:35:41 10° SSW 18:42:03 71° WNW 18:48:29 10° N
Ariane Rocket 3.9 18:38:09 10° S 18:43:05 50° W 18:48:03 10° NNW
Cosmos 2084 4.1 18:40:03 10° WSW 18:44:30 61° NW 18:48:57 10° NE
STARLINK-1224 4.2 18:41:12 10° SW 18:44:54 36° SSE 18:47:23 18° E
STARLINK-1104 3.8 18:41:34 10° W 18:45:41 64° SSW 18:48:25 20° ESE
IRIDIUM 106 4.4 18:41:44 10° N 18:46:54 56° E 18:52:01 10° SSE
Cosmos 1455 Rocket 3.3 18:42:38 10° SSW 18:46:58 72° WNW 18:51:21 10° N
STARLINK-1225 4.1 18:45:50 10° SW 18:49:35 38° SSE 18:51:55 20° E
STARLINK-1144 3.8 18:46:32 10° W 18:50:38 62° SSW 18:53:11 22° SE
STARLINK-1203 3.9 18:47:46 10° SW 18:51:29 41° SSE 18:53:42 21° E
Cosmos 1626 Rocket 3.7 18:47:06 10° NNW 18:51:32 80° W 18:55:54 10° S
NOSS 2-2 (D) 4.4 18:47:01 10° NW 18:52:19 86° NE 18:57:58 17° SE
SL-16 R/B 2.2 18:47:57 10° SSW 18:53:32 63° ESE 18:59:08 10° NE
STARLINK-1230 4.0 18:50:25 10° SW 18:54:12 40° SSE 18:56:22 22° E
Cosmos 2333 Rocket 4.1 18:49:21 10° WSW 18:54:26 32° NW 18:59:31 10° NNE
Cosmos 1626 3.1 18:50:51 10° NNW 18:54:27 48° W 18:58:00 10° S
USA 186 3.5 18:52:20 10° SSW 18:55:33 36° W 18:58:42 10° NNW
STARLINK-1103 3.9 18:51:30 10° W 18:55:35 59° SSW 18:57:58 23° SE
Cosmos 1437 3.5 18:52:59 10° N 18:55:44 30° ENE 18:56:21 27° E
Cosmos 2084 Rocket 3.5 18:51:24 10° NW 18:55:54 90° E 18:58:47 22° SE
Spot 2 Rocket 4.1 18:52:55 19° ESE 18:56:06 40° ENE 19:00:51 10° N
Cosmos 1953 2.8 18:53:53 15° SSE 18:56:50 38° E 19:00:32 10° NNE
STARLINK-1234 2.9 18:54:23 10° WSW 18:57:19 54° SSE 18:58:25 32° E
STARLINK-1243 3.9 18:55:03 10° SW 18:58:52 43° SSE 19:00:53 24° E
Cosmos 1602 Rocket 3.6 18:54:35 10° NNW 18:59:06 85° W 19:03:33 10° S
NOSS 2-1 (E) 4.1 18:56:44 10° WSW 19:00:07 49° NNW 19:04:12 10° NE
STARLINK-1101 3.9 18:56:30 10° W 19:00:35 57° SSW 19:02:46 25° SE
Aureole 3 3.8 18:57:57 10° S 19:01:58 55° E 19:07:08 10° NNE
STARLINK-1236 3.9 18:59:40 10° SW 19:03:31 45° SSE 19:05:22 26° E
DMSP B5D2-2 4.1 18:59:03 10° NNE 19:04:12 56° E 19:09:20 10° S
ATLAS 2AS CENTAUR R/B 3.3 18:57:22 10° NW 19:05:04 56° NNE 19:10:15 20° E
STARLINK-1102 4.0 19:01:29 10° W 19:05:32 54° SSW 19:07:32 27° SE
IGS 5A 4.5 19:05:47 24° E 19:07:05 29° ENE 19:10:43 10° N
H-2A R/B 3.4 19:02:33 10° SSW 19:07:32 40° W 19:12:25 10° NNW
Aureole 2 Rocket 2.3 19:05:33 10° NNW 19:09:05 73° ENE 19:10:31 33° SE
STARLINK-1111 4.0 19:06:27 10° W 19:10:29 52° SSW 19:12:19 29° SE
Terra 3.4 19:10:44 18° ENE 19:12:08 20° NE 19:15:33 10° N
USA 234 3.3 19:06:24 10° ENE 19:12:49 55° SE 19:19:13 10° SW
STARLINK-1269 3.7 19:08:59 10° SW 19:12:54 49° SSE 19:14:25 31° E
CZ-2C R/B 3.7 19:09:02 10° NNE 19:13:51 88° ESE 19:18:35 10° SSW
Cosmos 1544 Rocket 4.4 19:10:10 10° SSW 19:14:28 52° WNW 19:18:50 10° N
ERBS 2.8 19:11:28 10° W 19:14:49 56° NNW 19:16:57 20° ENE
Cosmos 1603 4.4 19:12:01 17° SSE 19:15:26 31° ESE 19:20:18 10° NE
STARLINK-1073 4.1 19:11:26 10° W 19:15:27 50° SSW 19:17:06 30° SSE
Meteor 1-16 Rocket 4.5 19:12:23 19° SSE 19:15:54 43° E 19:21:04 10° NNE
Cosmos 1703 3.7 19:12:55 10° N 19:16:43 44° ENE 19:17:47 35° ESE
STARLINK-1200 3.7 19:13:39 10° SW 19:17:35 52° SSE 19:18:57 34° E
Cosmos 1726 Rocket 4.4 19:18:06 29° E 19:18:27 30° E 19:22:18 10° NNE
Cosmos 1825 Rocket 3.5 19:14:05 10° N 19:18:31 65° ENE 19:20:41 29° SSE
STARLINK-1121 4.1 19:16:26 10° W 19:20:25 47° SSW 19:21:53 32° SSE
STARLINK-1192 3.6 19:18:15 10° SW 19:22:12 54° SSE 19:23:25 38° ESE
MetOp-B 4.1 19:19:53 24° SSE 19:23:10 70° ENE 19:28:32 10° NNW
Cosmos 2237 Rocket 3.5 19:18:44 10° WSW 19:24:04 43° NW 19:29:28 10° NNE
COSMOS 2455 3.9 19:19:06 10° NW 19:24:38 35° NNE 19:28:01 20° E
STARLINK-1106 4.2 19:21:24 10° W 19:25:22 45° SSW 19:26:39 33° SSE
CZ-2C R/B 2.5 19:20:40 10° NNE 19:25:53 70° ESE 19:31:03 10° S
STARLINK-1244 3.6 19:23:01 10° SW 19:26:59 56° SSE 19:28:01 42° ESE
Meteor 1-11 4.5 19:21:25 10° N 19:27:09 54° ENE 19:29:47 30° SE
Cosmos 2184 Rocket 4.0 19:20:48 10° N 19:27:12 87° E 19:32:14 17° S
STARLINK-1201 2.9 19:24:01 10° WSW 19:27:16 65° SSE 19:27:30 62° SE
Cosmos 1992 Rocket 4.0 19:22:10 10° NNW 19:27:25 78° WSW 19:30:33 24° SSE
Cosmos 1758 Rocket 3.5 19:23:23 10° NNW 19:27:49 89° SSW 19:30:09 27° S
STARLINK-1112 4.3 19:26:24 10° W 19:30:20 43° SSW 19:31:27 34° SSE
STARLINK-1138 3.5 19:27:41 10° WSW 19:31:41 59° SSE 19:32:32 47° ESE
STARLINK-1209 2.8 19:29:39 10° WSW 19:32:14 64° SW 19:32:14 64° SW
STARLINK-1228 2.9 19:30:38 10° WSW 19:33:08 62° SW 19:33:08 62° SW
Meteor 2-17 Rocket 4.4 19:27:35 10° N 19:33:43 66° ENE 19:36:56 29° SSE
Cosmos 1953 Rocket 3.6 19:29:41 10° N 19:34:07 64° ENE 19:35:31 41° SE
STARLINK-1128 4.4 19:31:24 10° W 19:35:19 40° SSW 19:36:15 35° S
STARLINK-1143 3.5 19:32:26 10° WSW 19:36:26 61° SSE 19:37:08 51° ESE
SL-8 R/B 4.2 19:32:24 10° W 19:36:57 44° S 19:38:02 38° SSE
Cosmos 1461 4.2 19:33:09 10° NW 19:37:10 32° NNE 19:38:46 25° ENE
Cosmos 2251 Rocket 3.5 19:32:29 10° S 19:37:45 60° ESE 19:43:04 10° NNE
Cosmos 1656 Rocket 3.7 19:33:15 10° NNW 19:38:57 70° NE 19:41:14 37° SE
STARLINK-1113 4.4 19:36:24 10° W 19:40:16 38° SSW 19:41:02 35° S
Cosmos 1470 4.2 19:39:44 10° SW 19:43:22 38° WNW 19:47:02 10° N
Cosmos 1606 Rocket 3.5 19:43:16 45° SSE 19:44:23 62° E 19:48:48 10° NNE
STARLINK-1119 4.5 19:41:23 10° W 19:45:12 36° SSW 19:45:48 34° S
STARLINK-1241 3.4 19:42:52 10° WSW 19:46:51 66° SSE 19:47:06 64° SE
STARLINK-1233 3.4 19:43:51 10° WSW 19:46:21 52° WSW 19:46:21 52° WSW
STARLINK-1212 3.4 19:44:19 10° WSW 19:46:46 50° WSW 19:46:46 50° WSW
STARLINK-1105 3.4 19:44:45 10° WSW 19:47:13 51° WSW 19:47:13 51° WSW
Cosmos 2154 Rocket 4.0 19:41:42 10° N 19:48:06 82° ENE 19:51:33 29° SSE
STARLINK-1206 3.5 19:45:15 10° WSW 19:47:38 48° WSW 19:47:38 48° WSW
ISS -2.6 19:45:30 10° W 19:48:11 33° SW 19:48:11 33° SW
STARLINK-1247 3.6 19:45:41 10° WSW 19:48:03 47° WSW 19:48:03 47° WSW
STARLINK-1227 3.5 19:46:05 10° WSW 19:48:31 49° WSW 19:48:31 49° WSW
ATLAS CENTAUR R/B 3.9 19:46:46 10° NW 19:49:32 17° N 19:52:13 10° NE
STARLINK-1218 3.6 19:46:35 10° WSW 19:48:55 46° WSW 19:48:55 46° WSW
ERS-1 Rocket 3.1 19:48:48 43° ESE 19:50:03 55° ENE 19:54:59 10° N
STARLINK-1226 3.6 19:47:03 10° WSW 19:49:23 46° WSW 19:49:23 46° WSW
STARLINK-1254 3.6 19:47:26 10° WSW 19:49:48 47° WSW 19:49:48 47° WSW
STARLINK-1215 3.7 19:47:57 10° WSW 19:50:14 45° WSW 19:50:14 45° WSW
STARLINK-1239 3.4 19:47:26 10° WSW 19:51:25 69° SSE 19:51:30 68° SSE
STARLINK-1231 3.7 19:48:22 10° WSW 19:50:39 44° WSW 19:50:39 44° WSW
USA 245 4.0 19:50:07 37° SSE 19:52:15 89° WSW 19:58:13 10° NNW
STARLINK-1232 3.8 19:49:17 10° WSW 19:51:31 43° WSW 19:51:31 43° WSW
STARLINK-1217 3.8 19:49:44 10° WSW 19:51:58 43° WSW 19:51:58 43° WSW
BREEZE-M DEB (TANK) 4.2 19:48:19 10° W 19:53:08 34° SSW 19:53:09 34° SSW
STARLINK-1208 3.8 19:50:09 10° WSW 19:52:25 44° WSW 19:52:25 44° WSW
STARLINK-1229 3.8 19:50:38 10° WSW 19:52:49 41° WSW 19:52:49 41° WSW
STARLINK-1271 3.9 19:51:06 10° WSW 19:53:17 41° WSW 19:53:17 41° WSW
STARLINK-1270 3.9 19:51:32 10° WSW 19:53:42 40° WSW 19:53:42 40° WSW
Cosmos 2369 Rocket 2.7 19:49:24 10° NW 19:54:58 54° WSW 19:57:50 28° S
STARLINK-1154 3.9 19:51:59 10° WSW 19:54:07 40° WSW 19:54:07 40° WSW
Resurs 01 Rocket 2.8 19:53:04 18° SSW 19:56:00 40° W 20:00:11 10° NNW
STARLINK-1197 4.0 19:52:53 10° WSW 19:54:59 39° WSW 19:54:59 39° WSW
STARLINK-1240 3.4 19:52:02 10° WSW 19:55:56 70° S 19:55:56 70° S
SPOT 5 2.9 19:56:05 48° E 19:56:26 49° ENE 20:00:39 10° N
STARLINK-1189 4.0 19:53:20 10° WSW 19:55:26 38° WSW 19:55:26 38° WSW
STARLINK-1187 3.9 19:54:11 10° W 19:56:21 41° WSW 19:56:21 41° WSW
STARLINK-1188 4.0 19:54:14 10° WSW 19:56:17 38° WSW 19:56:17 38° WSW
STARLINK-1198 4.1 19:54:28 10° WSW 19:56:31 37° WSW 19:56:31 37° WSW
STARLINK-1235 3.9 19:54:52 10° W 19:57:05 42° WSW 19:57:05 42° WSW
Cosmos 2263 4.4 19:53:10 10° NW 19:58:45 66° WSW 20:00:59 36° S
STARLINK-1199 4.1 19:56:10 10° WSW 19:58:13 37° WSW 19:58:13 37° WSW
STARLINK-1191 4.1 19:56:38 10° WSW 19:58:39 36° WSW 19:58:39 36° WSW
STARLINK-1210 4.2 19:57:04 10° WSW 19:59:04 36° WSW 19:59:04 36° WSW
STARLINK-1216 3.5 19:56:39 10° WSW 20:00:23 69° SSW 20:00:23 69° SSW
STARLINK-1221 4.2 19:57:32 10° WSW 19:59:33 36° WSW 19:59:33 36° WSW
STARLINK-1219 4.2 19:57:59 10° WSW 19:59:58 35° WSW 19:59:58 35° WSW
STARLINK-1222 4.2 19:58:25 10° WSW 20:00:23 35° WSW 20:00:23 35° WSW
STARLINK-1211 4.3 19:58:53 10° W 20:00:49 34° WSW 20:00:49 34° WSW
Cosmos 1908 3.4 20:02:46 59° NE 20:02:46 59° NE 20:06:06 10° NNE
STARLINK-1214 4.3 19:59:20 10° W 20:01:15 34° WSW 20:01:15 34° WSW
STARLINK-1245 4.3 19:59:50 10° W 20:01:41 32° WSW 20:01:41 32° WSW
STARLINK-1238 4.3 20:00:15 10° W 20:02:08 33° WSW 20:02:08 33° WSW
Cosmos 962 Rocket 4.4 19:58:00 10° N 20:04:15 71° ENE 20:06:15 44° SSE
STARLINK-1205 4.4 20:01:11 10° W 20:02:59 31° WSW 20:02:59 31° WSW
STARLINK-1204 4.5 20:01:37 10° W 20:03:23 31° WSW 20:03:23 31° WSW
STARLINK-1237 3.6 20:01:17 10° WSW 20:04:52 65° SW 20:04:52 65° SW
Cosmos 1726 2.8 20:06:30 36° SW 20:07:42 54° WNW 20:11:25 10° N
Landsat 7 3.8 20:06:34 51° S 20:07:46 80° WSW 20:12:34 10° NNW
Cosmos 921 Rocket 3.4 20:05:29 10° NNW 20:09:20 47° NE 20:09:20 47° NE
STARLINK-1202 3.7 20:05:54 10° WSW 20:09:19 61° SW 20:09:19 61° SW
SL-8 Rocket 4.2 20:04:16 10° N 20:10:28 56° ENE 20:11:56 46° ESE
Nadezhda 1 Rocket 4.0 20:06:17 22° S 20:10:37 89° E 20:17:03 10° N
MOS 1 Rocket 4.3 20:05:47 10° N 20:10:46 53° WNW 20:15:58 10° SW
Cosmos 2228 3.0 20:11:03 57° SSW 20:11:53 79° WNW 20:16:13 10° N
SAR-Lupe-2 4.1 20:08:22 10° N 20:11:55 57° WNW 20:12:21 52° WSW
CZ-4C R/B 3.9 20:08:50 10° WNW 20:14:25 34° N 20:20:59 10° ENE
STARLINK-1246 3.9 20:11:00 10° WSW 20:14:18 57° WSW 20:14:18 57° WSW
Cosmos 2366 rocket 4.2 20:11:37 10° N 20:17:38 51° ENE 20:18:37 47° ESE
Cosmos 1943 Rocket 3.7 20:15:13 10° NW 20:19:53 29° WSW 20:22:51 18° SSW
Cosmos 1340 Rocket 3.9 20:22:11 37° NE 20:22:11 37° NE 20:24:48 10° NNE
Cosmos 1943 3.1 20:19:28 48° S 20:20:58 70° ESE 20:26:39 10° NE
Cosmos 2058 4.1 20:19:25 10° N 20:22:13 31° NE 20:22:13 31° NE
NOSS 3-4 (A) 3.7 20:16:47 10° NW 20:23:39 87° SW 20:25:57 48° SE
NOSS 3-4 (C) 3.7 20:16:53 10° NW 20:23:45 87° SW 20:26:03 48° SE
Cosmos 2058 Rocket 3.1 20:24:10 75° NE 20:24:10 75° NE 20:28:25 10° NNE
STARLINK-1224 4.3 20:19:51 10° WSW 20:22:45 45° WSW 20:22:45 45° WSW
STARLINK-1225 4.5 20:24:33 10° WSW 20:27:17 41° WSW 20:27:17 41° WSW
Mayak 1.0 20:29:24 10° NE 20:30:20 15° NE 20:30:20 15° NE
SPOT 1/Viking Rocket 3.9 20:32:06 46° SSW 20:33:21 58° WSW 20:38:32 10° NNW
Cosmos 1953 4.5 20:30:04 10° WSW 20:33:22 25° WNW 20:36:42 10° N
Cosmos 1959 Rocket 4.5 20:27:59 10° N 20:34:21 68° ENE 20:35:20 59° ESE
NOSS 3-3 (A) 3.8 20:29:30 10° SW 20:35:29 77° SE 20:42:19 10° NE
NOSS 3-3 (C) 3.8 20:29:37 10° SW 20:35:35 77° SE 20:42:25 10° NE
SL-16 R/B 3.8 20:32:55 10° WSW 20:38:03 34° NW 20:43:13 10° NNE
Cosmos 1697 Rocket 4.2 20:38:00 10° NNW 20:42:43 26° NE 20:44:20 23° ENE
Terra 1.9 20:49:37 76° WNW 20:49:37 76° WNW 20:54:10 10° NNW
Cosmos 1076 Rocket 4.3 20:45:26 10° N 20:48:32 45° N 20:48:32 45° N
CARTOSAT-1 4.2 20:50:52 51° W 20:50:52 51° W 20:54:47 10° NNW
Cosmos 2341 Rocket 4.3 20:45:51 10° NNW 20:52:08 64° W 20:53:51 47° SSW
Cosmos 1140 Rocket 4.5 20:56:44 36° NE 20:56:44 36° NE 20:59:55 10° NNE
USA 234 3.3 20:49:31 10° ENE 20:56:05 78° NNW 21:02:37 10° WSW
ATLAS 2AS CENTAUR R/B 3.0 20:48:46 10° NW 20:56:19 62° SW 20:57:42 53° S
Cosmos 1603 4.1 20:53:43 10° SW 20:59:17 59° NW 21:04:51 10° NNE
Cosmos 468 Rocket 4.5 20:54:40 10° NNW 20:59:25 50° NE 20:59:25 50° NE
Cosmos 1821 Rocket 4.4 20:55:57 10° N 21:02:04 48° ENE 21:02:13 48° ENE
Cosmos 407 Rocket 3.8 21:04:45 56° NNE 21:04:45 56° NNE 21:08:46 10° NNE
Cosmos 1980 Rocket 3.9 21:03:04 10° NNW 21:07:33 24° NNE 21:09:09 21° ENE
RESURS DK-1 4.3 21:05:21 10° NNW 21:08:08 23° NNE 21:08:08 23° NNE
Aureole 1 Rocket 4.2 21:07:14 39° SSW 21:10:24 84° WNW 21:16:47 10° NNE
COSMOS 2455 2.7 21:05:06 10° NW 21:11:09 79° SW 21:11:09 79° SW
Iridium 4 Rocket 4.0 21:08:18 10° N 21:11:53 48° NW 21:11:53 48° NW
Cosmos 1461 4.2 21:12:09 10° NW 21:15:09 41° WNW 21:15:09 41° WNW
Meteor 2-12 Rocket 4.3 21:13:28 10° NNW 21:19:37 82° W 21:19:45 81° WSW
Cosmos 2218 Rocket 4.1 21:14:45 10° NNW 21:20:50 62° W 21:21:25 59° WSW
USA 32 4.3 21:17:44 10° N 21:22:11 64° N 21:22:11 64° N
Cosmos 614 Rocket 4.4 21:27:59 58° WNW 21:27:59 58° WNW 21:33:07 10° NNE
ATLAS CENTAUR R/B 3.5 21:26:28 10° NNW 21:29:15 22° N 21:29:15 22° N
Cosmos 2181 Rocket 4.3 21:33:10 55° WSW 21:34:06 61° WNW 21:40:18 10° N
Meteor 2-3 Rocket 4.4 21:34:51 10° N 21:39:48 47° NE 21:39:48 47° NE
Cosmos 1656 4.0 21:43:55 10° NNW 21:48:47 63° N 21:48:47 63° N
ATLAS 5 CENTAUR R/B 4.3 21:57:41 13° NE 21:57:41 13° NE 21:58:15 10° NE
Cosmos 2369 4.3 21:49:16 10° NNW 21:54:13 52° NNE 21:54:13 52° NNE
ALOS 2 4.3 22:03:08 32° N 22:03:08 32° N 22:05:32 10° N
CZ-4C R/B 3.3 21:57:50 10° NW 22:04:19 53° NNE 22:06:33 41° ENE
Mayak 0.8 22:04:43 10° N 22:06:54 27° NNW 22:06:54 27° NNW
Cosmos 1818 4.3 22:11:44 50° NNW 22:11:44 50° NNW 22:16:34 10° NE
Nadezhda 3 Rocket 4.1 22:13:04 73° N 22:13:04 73° N 22:18:48 10° N
Cosmos 2344 4.3 22:06:01 10° NW 22:14:53 74° NE 22:20:04 38° ESE
Cosmos 1697 Rocket 3.3 22:21:46 10° NNW 22:26:03 53° NNW 22:26:03 53° NNW
Terra 4.4 22:28:29 13° WNW 22:28:29 13° WNW 22:30:04 10° WNW
SL-16 R/B 3.8 22:23:28 10° NNW 22:28:19 28° NE 22:29:37 25° ENE
USA 234 3.5 22:32:26 10° E 22:38:54 65° N 22:45:22 10° WNW
Cosmos 2322 Rocket 3.7 22:38:28 10° NNW 22:43:23 29° NE 22:44:37 27° ENE
Cosmos 2360 Rocket 4.3 22:40:01 10° NNW 22:44:17 21° NNE 22:47:51 12° ENE
Cosmos 1980 Rocket 2.9 22:46:49 10° NNW 22:50:54 49° NNW 22:50:54 49° NNW
Cosmos 1605 Rocket 4.5 22:59:54 10° NNW 23:04:45 52° NW 23:04:45 52° NW
COSMOS 2406 3.9 23:07:44 50° NNE 23:07:44 50° NNE 23:11:55 10° NNE
ATLAS CENTAUR R/B 4.3 23:05:19 10° NW 23:05:26 11° NW 23:05:26 11° NW
Cosmos 2173 Rocket 4.3 23:05:25 10° N 23:10:40 59° NE 23:10:40 59° NE
Cosmos 2082 Rocket 3.4 23:15:19 35° ENE 23:15:19 35° ENE 23:18:47 10° NE
SL-16 R/B 3.5 23:21:37 38° E 23:22:35 40° ENE 23:28:21 10° N
Cosmos 2061 Rocket 4.4 23:16:50 10° N 23:22:33 57° ENE 23:22:33 57° ENE
ATLAS 5 CENTAUR R/B 3.2 23:39:11 35° N 23:39:11 35° N 23:43:13 10° NE
Cosmos 1833 Rocket 3.2 23:45:09 55° N 23:45:09 55° N 23:49:39 10° NNE
Cosmos 2219 Rocket 4.4 23:44:34 10° NNW 23:48:59 23° NNE 23:53:22 10° E
CZ-2D R/B 3.5 23:49:54 10° NNE 23:54:16 30° E 23:54:16 30° E
